TimeCST,TemperatureF,Dew PointF,Humidity,Sea Level PressureIn,VisibilityMPH,Wind Direction,Wind SpeedMPH,Gust SpeedMPH,PrecipitationIn,Events,Conditions,WindDirDegrees,DateUTC
12:15 AM,51.3,38.8,63,29.98,10.0,NNW,11.5,17.3,N/A,,Overcast,330,2012-12-04 06:15:00
12:35 AM,50.0,38.8,66,29.98,10.0,NNW,10.4,-,N/A,,Mostly Cloudy,340,2012-12-04 06:35:00
12:55 AM,49.3,38.7,67,29.98,10.0,NNW,10.4,-,N/A,,Scattered Clouds,330,2012-12-04 06:55:00
1:15 AM,48.4,38.8,70,29.99,10.0,NNW,8.1,-,N/A,,Clear,330,2012-12-04 07:15:00
1:35 AM,47.8,38.5,70,29.99,10.0,NNW,9.2,-,N/A,,Clear,340,2012-12-04 07:35:00
1:55 AM,47.7,38.3,70,29.99,10.0,NNW,6.9,-,N/A,,Clear,340,2012-12-04 07:55:00
2:15 AM,46.6,38.3,73,30.01,10.0,NNW,4.6,-,N/A,,Clear,330,2012-12-04 08:15:00
2:35 AM,46.4,37.4,71,30.03,10.0,NNW,3.5,-,N/A,,Clear,330,2012-12-04 08:35:00
2:55 AM,45.1,37.6,75,30.04,10.0,Calm,Calm,-,N/A,,Clear,0,2012-12-04 08:55:00
3:15 AM,44.4,37.4,76,30.04,10.0,NW,4.6,-,N/A,,Clear,310,2012-12-04 09:15:00
3:35 AM,43.2,37.0,79,30.04,10.0,NW,5.8,-,N/A,,Clear,310,2012-12-04 09:35:00
3:55 AM,44.1,37.4,77,30.06,10.0,NW,5.8,-,N/A,,Clear,310,2012-12-04 09:55:00
4:15 AM,43.7,37.4,78,30.08,10.0,WNW,5.8,-,N/A,,Clear,300,2012-12-04 10:15:00
4:35 AM,43.3,37.4,80,30.08,10.0,NW,4.6,-,N/A,,Clear,310,2012-12-04 10:35:00
4:55 AM,43.2,37.4,80,30.08,10.0,NW,5.8,-,N/A,,Clear,320,2012-12-04 10:55:00
5:15 AM,43.2,37.4,80,30.08,10.0,NNW,4.6,-,N/A,,Clear,330,2012-12-04 11:15:00
5:35 AM,43.3,36.9,78,30.09,10.0,NW,4.6,-,N/A,,Clear,320,2012-12-04 11:35:00
5:55 AM,42.8,36.9,80,30.09,10.0,NW,4.6,-,N/A,,Clear,310,2012-12-04 11:55:00
6:15 AM,42.8,37.0,80,30.10,10.0,WNW,6.9,-,N/A,,Clear,300,2012-12-04 12:15:00
6:35 AM,41.9,36.7,82,30.11,10.0,WNW,5.8,-,N/A,,Clear,300,2012-12-04 12:35:00
6:55 AM,41.9,36.5,81,30.12,10.0,NW,5.8,-,N/A,,Clear,310,2012-12-04 12:55:00
7:15 AM,40.3,35.6,83,30.12,10.0,NW,5.8,-,N/A,,Clear,310,2012-12-04 13:15:00
7:35 AM,39.7,34.9,83,30.13,10.0,NW,6.9,-,N/A,,Clear,310,2012-12-04 13:35:00
7:55 AM,40.3,35.1,82,30.13,10.0,NW,6.9,-,N/A,,Clear,310,2012-12-04 13:55:00
8:15 AM,41.2,36.0,82,30.14,10.0,WNW,6.9,-,N/A,,Clear,300,2012-12-04 14:15:00
8:35 AM,41.9,36.1,80,30.15,10.0,WNW,4.6,-,N/A,,Clear,290,2012-12-04 14:35:00
8:55 AM,42.8,36.7,79,30.15,10.0,WNW,6.9,-,N/A,,Clear,300,2012-12-04 14:55:00
9:15 AM,43.3,36.7,77,30.16,10.0,WNW,5.8,-,N/A,,Clear,290,2012-12-04 15:15:00
9:35 AM,44.8,35.8,71,30.16,10.0,WNW,6.9,-,N/A,,Clear,290,2012-12-04 15:35:00
9:55 AM,46.0,35.8,67,30.18,10.0,WNW,10.4,-,N/A,,Clear,290,2012-12-04 15:55:00
10:15 AM,47.8,35.8,63,30.18,10.0,WNW,8.1,-,N/A,,Clear,290,2012-12-04 16:15:00
10:35 AM,48.7,35.1,59,30.18,10.0,WNW,9.2,-,N/A,,Clear,300,2012-12-04 16:35:00
10:55 AM,49.6,35.4,58,30.18,10.0,WNW,9.2,-,N/A,,Clear,290,2012-12-04 16:55:00
11:15 AM,50.4,34.5,55,30.18,10.0,West,9.2,-,N/A,,Clear,280,2012-12-04 17:15:00
11:35 AM,51.6,35.1,53,30.17,10.0,West,6.9,-,N/A,,Clear,280,2012-12-04 17:35:00
11:55 AM,53.6,35.6,51,30.17,10.0,West,9.2,-,N/A,,Clear,280,2012-12-04 17:55:00
12:15 PM,54.5,33.3,45,30.16,10.0,West,10.4,-,N/A,,Clear,270,2012-12-04 18:15:00
12:35 PM,55.2,31.5,40,30.16,10.0,West,13.8,-,N/A,,Clear,280,2012-12-04 18:35:00
12:55 PM,55.9,29.7,37,30.15,10.0,WNW,11.5,-,N/A,,Clear,290,2012-12-04 18:55:00
1:15 PM,57.2,30.2,36,30.14,10.0,West,11.5,-,N/A,,Clear,280,2012-12-04 19:15:00
1:35 PM,58.3,28.2,32,30.14,10.0,West,15.0,-,N/A,,Clear,270,2012-12-04 19:35:00
1:55 PM,58.8,28.9,32,30.14,10.0,West,12.7,-,N/A,,Clear,280,2012-12-04 19:55:00
2:15 PM,59.2,27.0,29,30.14,10.0,WNW,15.0,18.4,N/A,,Clear,290,2012-12-04 20:15:00
2:35 PM,59.0,27.7,30,30.15,10.0,West,10.4,-,N/A,,Clear,270,2012-12-04 20:35:00
2:55 PM,59.4,27.3,29,30.15,10.0,West,13.8,-,N/A,,Clear,280,2012-12-04 20:55:00
3:15 PM,58.8,25.9,28,30.16,10.0,West,13.8,-,N/A,,Clear,280,2012-12-04 21:15:00
3:35 PM,58.1,25.9,29,30.16,10.0,WNW,12.7,-,N/A,,Clear,290,2012-12-04 21:35:00
3:55 PM,56.1,27.0,33,30.17,10.0,WNW,9.2,-,N/A,,Clear,290,2012-12-04 21:55:00
4:15 PM,54.1,27.1,35,30.18,10.0,West,8.1,-,N/A,,Clear,280,2012-12-04 22:15:00
4:35 PM,51.1,27.5,40,30.18,10.0,West,8.1,-,N/A,,Clear,280,2012-12-04 22:35:00
4:55 PM,49.3,26.8,42,30.19,10.0,West,6.9,-,N/A,,Clear,280,2012-12-04 22:55:00
5:15 PM,46.4,26.4,46,30.19,10.0,West,6.9,-,N/A,,Clear,280,2012-12-04 23:15:00
5:35 PM,44.6,26.4,49,30.20,10.0,WNW,5.8,-,N/A,,Clear,290,2012-12-04 23:35:00
5:55 PM,43.2,27.0,53,30.21,10.0,WNW,4.6,-,N/A,,Clear,290,2012-12-04 23:55:00
6:15 PM,43.0,26.6,52,30.21,10.0,NW,5.8,-,N/A,,Clear,310,2012-12-05 00:15:00
6:35 PM,41.2,26.6,56,30.22,10.0,NW,4.6,-,N/A,,Clear,310,2012-12-05 00:35:00
6:55 PM,40.5,26.6,58,30.23,10.0,NW,3.5,-,N/A,,Clear,310,2012-12-05 00:55:00
7:15 PM,39.4,26.2,59,30.24,10.0,NW,4.6,-,N/A,,Clear,310,2012-12-05 01:15:00
7:35 PM,36.9,26.2,65,30.24,10.0,NW,4.6,-,N/A,,Clear,310,2012-12-05 01:35:00
7:55 PM,36.7,26.2,66,30.24,10.0,NW,4.6,-,N/A,,Clear,320,2012-12-05 01:55:00
8:15 PM,36.7,26.4,66,30.25,10.0,NW,4.6,-,N/A,,Clear,310,2012-12-05 02:15:00
8:35 PM,35.6,26.2,69,30.25,10.0,NW,4.6,-,N/A,,Clear,310,2012-12-05 02:35:00
8:55 PM,34.5,26.4,72,30.26,10.0,WNW,4.6,-,N/A,,Clear,290,2012-12-05 02:55:00
9:15 PM,36.0,26.4,68,30.26,10.0,West,5.8,-,N/A,,Clear,280,2012-12-05 03:15:00
9:35 PM,35.6,27.0,71,30.27,10.0,West,4.6,-,N/A,,Clear,280,2012-12-05 03:35:00
9:55 PM,34.2,27.0,75,30.27,10.0,West,3.5,-,N/A,,Clear,280,2012-12-05 03:55:00
10:15 PM,32.5,25.9,76,30.28,10.0,NW,3.5,-,N/A,,Clear,310,2012-12-05 04:15:00
10:35 PM,33.3,26.6,77,30.29,10.0,NW,4.6,-,N/A,,Clear,310,2012-12-05 04:35:00
10:55 PM,34.5,28.2,78,30.30,10.0,NW,6.9,-,N/A,,Clear,320,2012-12-05 04:55:00
11:15 PM,36.5,30.2,78,30.30,10.0,NNW,8.1,-,N/A,,Clear,340,2012-12-05 05:15:00
11:35 PM,35.2,29.8,81,30.31,10.0,NNW,8.1,-,N/A,,Clear,340,2012-12-05 05:35:00
11:55 PM,36.3,29.7,77,30.31,10.0,North,9.2,-,N/A,,Clear,350,2012-12-05 05:55:00